YO8RXT-3 Weather Reports


time (UTC)temp
C
wind
direction
speed
KPH
gust
KPH
rain 1hr
cm
rain 24hr
cm
rain mn
cm
humidity
%
barometer
mb
20260502183503 10 50 9.7 0.0 0.00 0.00 0.00 37 1023.0
20260502180503 10 50 9.7 0.0 0.00 0.00 0.00 40 1023.0
20260502170503 12 70 8.0 0.0 0.00 0.00 0.00 35 1023.0
20260502163503 12 80 11.3 0.0 0.00 0.00 0.00 31 1023.0
20260502160502 12 90 9.7 0.0 0.00 0.00 0.00 31 1023.0
20260502150502 12 50 12.9 0.0 0.00 0.00 0.00 28 1023.0
20260502130502 12 70 14.5 0.0 0.00 0.00 0.00 33 1023.0
20260502123503 12 70 11.3 0.0 0.00 0.00 0.00 33 1024.0
20260502120503 13 70 14.5 0.0 0.00 0.00 0.00 31 1024.0
20260502113502 12 60 14.5 0.0 0.00 0.00 0.00 31 1024.0
20260502110502 12 70 14.5 0.0 0.00 0.00 0.00 31 1024.0
20260502103503 12 100 12.9 0.0 0.00 0.00 0.00 33 1024.0
20260502100502 12 50 12.9 0.0 0.00 0.00 0.00 38 1024.0
20260502090503 12 140 11.3 0.0 0.00 0.00 0.00 44 1024.0
20260502070503 8 70 4.8 0.0 0.00 0.00 0.00 62 1024.0
20260502063502 8 60 4.8 0.0 0.00 0.00 0.00 62 1024.0
20260502060502 7 310 4.8 0.0 0.00 0.00 0.00 76 1024.0
20260502053502 7 260 4.8 0.0 0.00 0.00 0.00 71 1024.0
20260502050502 7 3.2 0.0 0.00 0.00 0.00 71 1024.0
20260502043502 7 250 4.8 0.0 0.00 0.00 0.00 76 1023.0
20260502040502 7 250 4.8 0.0 0.00 0.00 0.00 71 1023.0
20260502033503 7 3.2 0.0 0.00 0.00 0.00 71 1023.0
20260502030503 7 280 8.0 0.0 0.00 0.00 0.00 71 1023.0
20260502023502 6 220 4.8 0.0 0.00 0.00 0.00 81 1023.0
20260502020503 7 340 8.0 0.0 0.00 0.00 0.00 71 1023.0
20260502013502 7 320 9.7 0.0 0.00 0.00 0.00 71 1023.0
20260502010503 7 330 12.9 0.0 0.00 0.00 0.00 71 1023.0
20260502003503 7 340 14.5 0.0 0.00 0.00 0.00 71 1023.0
20260502000501 7 330 11.3 0.0 0.00 0.00 0.00 71 1023.0
20260501233502 7 340 9.7 0.0 0.00 0.00 0.00 66 1023.0
20260501230503 7 330 11.3 0.0 0.00 0.00 0.00 66 1023.0
20260501223503 7 330 12.9 0.0 0.00 0.00 0.00 76 1024.0
20260501220502 8 310 8.0 0.0 0.00 0.00 0.00 62 1024.0
20260501213503 8 340 8.0 0.0 0.00 0.00 0.00 66 1024.0
20260501210503 10 10 11.3 0.0 0.00 0.00 0.00 58 1024.0
20260501203502 10 20 11.3 0.0 0.00 0.00 0.00 58 1024.0
20260501200502 10 340 12.9 0.0 0.00 0.00 0.00 54 1024.0
20260501193503 10 320 12.9 0.0 0.00 0.00 0.00 50 1024.0
20260501190503 11 320 9.7 0.0 0.00 0.00 0.00 47 1023.0